This is the latest recevied weather packets stored in our database for station/object JS2WAD-13. If no packets are shown the sender has not sent any weather packets the latest 10 day(s).
| Time | Temp. | Humidity | Pressure | Rain* | Wind** | Luminosity | Snow |
|---|---|---|---|---|---|---|---|
| 1778148077 | 24.44° C | 59% | 900.9 hPa | 0 mm | - | 0 W/m² | - |
| 1778147777 | 24.44° C | 58% | 901.2 hPa | 0 mm | - | 0 W/m² | - |
| 1778147477 | 25° C | 57% | 900.9 hPa | 0 mm | - | 0 W/m² | - |
| 1778147177 | 25° C | 56% | 900.7 hPa | 0 mm | - | 0 W/m² | - |
| 1778146877 | 25° C | 55% | 900.6 hPa | 0 mm | - | 0 W/m² | - |
| 1778146577 | 25.56° C | 54% | 900.4 hPa | 0 mm | - | 0 W/m² | - |
| 1778146277 | 25.56° C | 54% | 900.5 hPa | 0 mm | - | 5 W/m² | - |
| 1778145977 | 26.11° C | 53% | 900.5 hPa | 0 mm | - | 7 W/m² | - |
| 1778145677 | 26.11° C | 52% | 900.3 hPa | 0 mm | - | 9 W/m² | - |
| 1778145377 | 26.67° C | 52% | 900.4 hPa | 0 mm | - | 9 W/m² | - |
| 1778145077 | 26.67° C | 51% | 900.3 hPa | 0 mm | - | 16 W/m² | - |
| 1778144777 | 26.67° C | 50% | 900.3 hPa | 0 mm | - | 19 W/m² | - |
| 1778144477 | 27.22° C | 50% | 900.4 hPa | 0 mm | - | 23 W/m² | - |
| 1778144177 | 27.22° C | 49% | 900.3 hPa | 0 mm | - | 26 W/m² | - |
| 1778143877 | 27.22° C | 50% | 900.7 hPa | 0 mm | - | 102 W/m² | - |
| 1778143577 | 27.22° C | 50% | 900.1 hPa | 0 mm | - | 148 W/m² | - |
| 1778143277 | 27.22° C | 49% | 900.1 hPa | 0 mm | - | 128 W/m² | - |
| 1778142977 | 27.22° C | 49% | 900.1 hPa | 0 mm | - | 65 W/m² | - |
| 1778142677 | 27.22° C | 50% | 900.1 hPa | 0 mm | - | 49 W/m² | - |
| 1778142377 | 27.22° C | 49% | 900 hPa | 0 mm | - | 51 W/m² | - |
| 1778142077 | 27.22° C | 49% | 899.9 hPa | 0 mm | - | 72 W/m² | - |
| 1778141777 | 27.78° C | 48% | 899.9 hPa | 0 mm | - | 223 W/m² | - |
| 1778141477 | 27.78° C | 48% | 900 hPa | 0 mm | - | 285 W/m² | - |
| 1778141177 | 27.78° C | 47% | 899.9 hPa | 0 mm | - | 257 W/m² | - |
| 1778140877 | 28.33° C | 47% | 899.8 hPa | 0 mm | - | 306 W/m² | - |
* Rain latest hour (hover to see other rain measurements)
** Current wind speed in m/s (hover to see current wind gust speed)